Regional Weather Roundup
Issued by NWS

Home | Current Version | Previous Version | Graphics & Text | Print | Product List | Glossary On
Versions: 1 2 3 4 5 6 7 8 9 10 11 12 13 14 15 16 17 18 19 20 21 22 23 24 25 26 27 28 29 30 31 32 33 34 35 36 37 38 39 40 41 42 43 44 45 46 47 48 49 50
704
ASUS45 KCYS 201110
RWRWY

WYOMING REGIONAL WEATHER ROUNDUP
NATIONAL WEATHER SERVICE CHEYENNE WY
500 AM MDT THU JUL 20 2017

NOTE:  "FAIR" INDICATES FEW OR NO CLOUDS BELOW 12,000 FEET
WITH NO SIGNIFICANT WEATHER AND/OR OBSTRUCTIONS TO VISIBILITY.

WYZ001-201200-
YELLOWSTONE NATIONAL PARK

CITY           SKY/WX    TMP DP  RH WIND       PRES   REMARKS
LK YELLOWSTONE   N/A     41  36  82 CALM      30.33R
W YELLOWSTONE  NOT AVBL

$$
WYZ002>013-054>058-071-098>099-201200-
NORTHERN WYOMING

CITY           SKY/WX    TMP DP  RH WIND       PRES   REMARKS
JACKSON        FAIR      46  39  76 NE6       30.26R
CODY           FAIR      66  39  37 SW8       30.08S
GREYBULL       FAIR      74  51  44 S13       30.00R
WORLAND        FAIR      72  54  53 CALM      30.02R
SHERIDAN       FAIR      62  51  67 SW6       30.01S
BUFFALO        FAIR      68  51  54 SE15      30.09R
GILLETTE       FAIR      72  55  55 S16       30.08S
HULETT         FAIR      70  54  56 W5        30.12R
NEWCASTLE      FAIR      68  54  60 S9        30.13F

$$
WYZ014>020-022>026-101>103-201200-
CENTRAL WYOMING

CITY           SKY/WX    TMP DP  RH WIND       PRES   REMARKS
BIG PINEY      FAIR      51  48  89 NW10      30.30F
PINEDALE       FAIR      50  48  93 CALM      30.31S
DUBOIS         FAIR      54  36  50 W5        30.29S
LANDER         FAIR      63  53  70 W7        30.14R
RIVERTON       FAIR      63  56  78 W9        30.14R
CASPER         FAIR      63  53  70 CALM      30.17R
DOUGLAS        FAIR      66  56  70 SE7       30.17R

$$
WYZ021-027>030-104>119-201200-
SOUTHERN WYOMING

CITY           SKY/WX    TMP DP  RH WIND       PRES   REMARKS
EVANSTON       FAIR      60  49  66 S3        30.29R
KEMMERER         N/A     54  45  71 N5        30.30S
FORT BRIDGER   FAIR      59  47  65 W6        30.31R
ROCK SPRINGS   FAIR      61  49  64 S7        30.26S
RAWLINS        FAIR      56  52  86 N7        30.31R
SARATOGA       FAIR      59  52  77 SE13G20   30.32R
LARAMIE        FAIR      57  53  86 SW6       30.34R
CHEYENNE       FAIR      63  54  72 NW7       30.27R
TORRINGTON     FAIR      67  64  90 CALM      30.13R
PINE BLUFFS    FAIR      63  61  94 NW3       30.22S

$$




USA.gov is the U.S. government's official web portal to all federal, state and local government web resources and services.